ARIRANG-5 (KOMPSAT-5)

Last updated on Thu Oct 30 2025 00:02:31 GMT+0000 (Coordinated Universal Time)

1 39227U 13042A 25302.51506638 .00002593 00000+0 18963-3 0 9997 2 39227 97.6195 127.4429 0002499 163.0770 197.0540 15.04481667669176
UTC large
Height (km)
Speed (km/s)
/
Latitude / Longitude
Inclination (degrees)
Orbital Period (minutes)
Azimuth
Elevation
Range (km)
Doppler Factor

Next 0 passes for location: London (51.5072 / 0.1276)

Sorry there are no passes over London.